www.pogodaiklimat.ru
ПОГОДА в Джолиете
Время
и дата
12:35 04.12
12:55 04.12
13:15 04.12
13:35 04.12
13:55 04.12
14:15 04.12
14:35 04.12
14:55 04.12
15:15 04.12
15:35 04.12
15:55 04.12
16:15 04.12
16:35 04.12
16:55 04.12
17:15 04.12
17:35 04.12
17:55 04.12
18:15 04.12
18:35 04.12
18:55 04.12
19:15 04.12
19:35 04.12
19:55 04.12
20:15 04.12
20:35 04.12
20:55 04.12
21:15 04.12
21:35 04.12
21:55 04.12
22:15 04.12
22:35 04.12
22:55 04.12
23:15 04.12
23:35 04.12
23:55 04.12
00:15 05.12
00:35 05.12
00:55 05.12
01:15 05.12
01:35 05.12
01:55 05.12
02:15 05.12
02:35 05.12
02:55 05.12
03:15 05.12
03:35 05.12
03:55 05.12
04:15 05.12
Ветер
(напр.,м/с)
Видим. Явления Облачность Т
(С)
Тd
(С)
f
(%)
Тe
(С)
Тes
(С)
Комфортность P
(гПа)
Po
(гПа)
Тmin
(С)
Tmax
(С)
R
(мм)
R24
(мм)
S
(см)
ЮЗ 4 16 км ясно +4.3 -9.1 37 +1 +4 1000.0
ЮЗ 4 16 км ясно +4.5 -9.2 36 +1 +4 999.7
ЮЗ 3 16 км ясно +4.8 -8.3 38 +2 +5 999.7
ЮЗ 4 16 км ясно +5.3 -8.9 35 +2 +5 999.3
ЮЗ 4 16 км ясно +5.7 -9.2 33 +3 +5 999.0
З 4 16 км ясно +5.7 -9.8 32 +3 +4 999.3
З 5 16 км ясно +5.7 -9.5 33 +2 +3 999.0
ЮЗ 2 16 км ясно +5.6 -9.6 33 +4 +6 999.0
ЮЗ 4 16 км ясно +5.6 -9.3 33 +3 +3 998.7
ЮЗ 3 16 км ясно +5.5 -9.2 34 +3 +4 998.7
ЮЗ 3 16 км ясно +4.8 -8.9 36 +2 +3 998.3
ЮЗ 4 16 км ясно +4.2 -8.6 39 +1 +1 998.3
ЮЗ 2 16 км ясно +3.6 -8.5 41 +2 +2 998.0
Ю 2 16 км ясно +2.9 -8.6 42 +1 +1 998.0
Ю 3 16 км ясно +1.8 -8.1 48 -2 -2 997.7
Ю 3 16 км ясно +2.0 -7.4 50 -2 -2 997.3
ЮЗ 2 16 км ясно +2.0 -7.1 51 -1 -1 997.7 +1.7 +6.0
Ю 2 16 км ясно +0.7 -7.3 55 -2 -2 997.3
ЮЗ 3 16 км ясно +1.1 -6.8 56 -3 -3 997.0
ЮЗ 2 16 км ясно +1.3 -7.0 54 -1 -1 997.0
Ю 3 16 км ясно +0.9 -7.0 56 -3 -3 997.0
ЮЗ 3 16 км ясно +0.4 -7.0 58 -4 -4 997.0
ЮЗ 3 16 км ясно +0.2 -6.6 60 -4 -4 997.0
ЮЗ 3 16 км ясно 0.0 -6.6 61 -4 -4 996.7
ЮЗ 3 16 км ясно 0.0 -6.5 62 -4 -4 996.7
ЮЗ 3 16 км ясно 0.0 -6.2 63 -4 -4 996.7
ЮЗ 3 16 км ясно 0.0 -6.1 63 -4 -4 996.3
ЮЗ 3 16 км ясно -0.5 -6.0 66 -5 -5 996.3
Ю 3 16 км ясно -0.9 -6.0 68 -5 -5 996.3
Ю 3 16 км ясно -1.0 -6.0 69 -6 -6 996.3
Ю 2 16 км ясно -1.2 -6.0 70 -5 -5 996.0
Ю 2 16 км ясно -1.7 -6.3 71 -5 -5 996.0
Ю 2 16 км ясно -1.8 -6.0 73 -5 -5 996.0
Ю 2 16 км ясно -2.0 -6.0 74 -6 -6 995.3
Ю 2 16 км ясно -2.0 -6.0 74 -6 -6 995.3 -2.1 +1.9
Ю 2 16 км ясно -2.3 -6.2 75 -6 -6 995.0
Ю 2 16 км ясно -2.3 -6.2 75 -6 -6 994.7
штиль 0 16 км ясно -2.7 -6.5 75 -4 -4 994.3
штиль 0 16 км ясно -2.3 -6.2 75 -3 -3 994.3
Ю 2 16 км ясно -2.6 -6.4 75 -6 -6 994.7
Ю 2 16 км ясно -2.5 -6.2 76 -6 -6 994.7
Ю 2 16 км ясно -2.0 -6.0 74 -6 -6 994.3
Ю 2 16 км ясно -2.3 -6.0 76 -6 -6 994.7
Ю 2 16 км ясно -1.8 -5.3 77 -6 -6 994.7
Ю 3 16 км ясно -1.6 -5.2 76 -6 -6 993.7
Ю 3 16 км ясно -1.5 -5.1 76 -6 -6 993.3
Ю 2 16 км ясно -1.5 -5.1 76 -5 -5 993.0
Ю 2 16 км ясно -1.5 -5.2 76 -5 -5 993.3
Местоположение метеостанции Joliet Regional Airport: широта 41.5176 долгота -88.1790 высота над уровнем моря 174 м.
В архиве по умолчанию представлена погода в Джолиете за последние 1-2 суток. Обновление информации о фактической погоде в базе происходит ежечасно! Архивные данные за месяц целиком и за предыдущие месяцы Вы можете получить, выбрав интересующий диапазон дат из раскрывающегося списка и нажав кнопку "Ввод!".
Внимание! Архив погоды МЕТАР в базе сайта по станциям, не включенным в климатический монитор, хранится не более 60 дней. Нет смысла пытаться выбрать более раннюю дату.
*Определитесь, кто Вы:
Внимание! Время в таблицах - местное (без учета летнего времени). Для получения всемирного времени необходимо вычесть поправку, которая равна -6 ч.
Смотрите также архив погоды в соседних городах и на ближайших метеорологических станциях:
Партнеры нашего сайта:      
Пояснения к столбцам:
  • Ветер - указаны скорость ветра в м/с - средняя за 10 мин, порывы в срок и между сроками (в фигурных скобках) и направление, откуда дует ветер: С - северный,
  • СВ - северо-восточный, В - восточный, ЮВ - юго-восточный, Ю - южный, ЮЗ - юго-западный, З - западный, СЗ - северо-западный.
  • Видимость - горизонтальная дальность видимости в метрах или километрах. При видимости от 1 до 10 км при отсутствии осадков обычно наблюдается дымка, при ухудшении видимости до 1 км и менее - туман. В сухую погоду видимость может ухудшаться дымом, пылью или мглою.
  • Явления - указаны атмосферные явления, наблюдавшиеся в срок или в последний час перед сроком; фигурными скобками обозначены явления, наблюдавшиеся между сроками (за 1-3 часа до срока); квадратными скобками обозначены град или гололедные отложения с указанием их диаметра в мм.
  • Облачность - указаны через наклонную черту общая и нижняя облачность в баллах и высота нижней границы облаков в метрах; квадратными скобками обозначены формы облаков: Ci - перистые, Cs - перисто-слоистые, Cc - перисто-кучевые, Ac - высококучевые, As - высокослоистые, Sc - слоисто-кучевые, Ns - слоисто-дождевые, Cu - кучевые, Cb - кучево-дождевые. Подробнее классификацию облаков см. в Атласе облаков (PDF).
  • T - Температура воздуха - температура, измеренная на высоте 2 м над землей.
  • Td - Температура точки росы - температура, при понижении до которой содержащийся в воздухе водяной пар достигнет насыщения.
  • f - Относительная влажность воздуха - влажноcть воздуха, измеренная на высоте 2 м над землей.
  • Te - Эффективная температура - температура, которую ощущает одетый по сезону человек в тени. Характеристика душности погоды. При расчете учитывается влияние влажности воздуха и скорости ветра на теплоощущения человека.
  • Tes - Эффективная температура на солнце - температура, которую ощущает человек, с поправкой на солнечный нагрев. Характеристика знойности погоды. Зависит от высоты солнца над горизонтом, облачности и скорости ветра. Ночью, в пасмурную погоду, а также при ветре 12 м/с и более поправка равна нулю.
  • P - Атмосферное давление - приведенное к уровню моря атмосферное давление.
  • Po - Атмосферное давление - измеренное на уровне метеостанции атмосферное давление.
  • Tmin - Минимальная температура - минимум температуры воздуха на высоте 2 м над землей.
  • Tmax - Максимальная температура - максимум температуры воздуха на высоте 2 м над землей.
  • R - Количество осадков - Количество выпавших осадков за период времени, мм. При наведении курсора мыши на число - период времени, за который выпало указанное количество осадков.
  • R24 - Количество осадков - Количество выпавших осадков за 24 часа, мм.
  • S - Снежный покров - Высота снежного покрова, см. При наведении курсора мыши на число - состояние снежного покрова и степень покрытия местности в баллах.